Location: Desert Creek Peak
(38.6138°N, 119.3160°W)
Time: 02:35:58
(UTC+00:00)

Daily predictions for brighter satellites

Satellite Brightness Start Highest point End
(mag) Time Altitude Azimuth Time Altitude Azimuth Time Altitude Azimuth
Cosmos 1295 Rocket 4.5 00:55:44 10° N 01:01:56 74° E 01:08:10 10° SSE
SMAP 3.3 00:59:20 10° SE 01:03:47 47° ENE 01:08:13 10° N
H-2A R/B 3.4 01:00:50 10° S 01:04:37 63° W 01:08:28 10° NNW
Cosmos 1862 4.2 01:01:05 10° NNW 01:05:02 56° W 01:08:55 10° S
Cosmos 2181 Rocket 4.4 01:01:01 10° SSE 01:07:03 45° E 01:13:03 10° NNE
Meteor 1-4 Rocket 4.0 01:08:36 10° SE 01:11:16 20° E 01:13:54 10° NE
Envisat 3.2 01:07:25 10° S 01:12:29 81° WSW 01:17:36 10° NNW
CORIOLIS 4.3 01:07:48 10° SSE 01:13:01 52° ENE 01:18:16 10° N
CZ-4C R/B 4.1 01:10:33 10° N 01:14:04 49° WNW 01:17:33 10° SSW
CZ-4B R/B 3.1 01:11:42 10° SSE 01:16:59 68° ENE 01:22:15 10° N
Cosmos 2237 Rocket 3.6 01:12:01 10° SW 01:17:09 36° WNW 01:22:19 10° N
H-2A R/B 2.2 01:13:04 10° N 01:17:17 76° WNW 01:21:35 10° SSW
NOAA 11 4.5 01:13:45 10° SE 01:18:51 44° ENE 01:23:59 10° N
AQUARIUS 4.2 01:15:08 10° SSE 01:19:32 59° ENE 01:23:59 10° N
CZ-2C R/B 4.5 01:16:57 10° E 01:19:37 15° ENE 01:22:14 10° NNE
USA 281 4.3 01:15:43 10° E 01:20:15 20° NE 01:24:49 10° N
CZ-4B R/B 1.8 01:19:03 10° NNE 01:21:57 36° E 01:24:54 10° SSE
Cosmos 773 Rocket 4.1 01:17:09 10° S 01:22:15 56° ESE 01:27:26 10° NNE
H-2A R/B 3.1 01:20:01 10° S 01:24:17 62° WSW 01:28:26 10° NNW
Radarsat Rocket 4.2 01:18:24 10° SSE 01:24:22 83° WSW 01:31:00 10° NNW
Cosmos 1633 Rocket 3.2 01:22:50 10° N 01:27:05 47° E 01:31:15 10° SSE
SKYMED 2 4.4 01:24:34 10° NE 01:28:26 31° E 01:32:17 10° SSE
Cosmos 389 Rocket 3.9 01:27:51 10° SSW 01:31:04 39° WNW 01:34:18 10° N
Cosmos 1606 3.8 01:28:16 10° SSW 01:32:02 47° W 01:35:48 10° N
Cosmos 2369 Rocket 3.3 01:27:38 10° N 01:32:02 22° NE 01:36:22 10° ESE
Meteor 1-25 Rocket 4.2 01:30:58 10° N 01:36:33 62° E 01:42:12 10° SSE
ERS-2 2.2 01:33:52 10° NNE 01:37:28 55° ESE 01:41:03 10° S
CZ-4 R/B 3.3 01:40:23 13° NE 01:40:23 13° NE 01:41:05 10° NNE
Cosmos 1939 Rocket 3.2 01:38:06 10° SE 01:41:40 37° ENE 01:45:17 10° N
CREW DRAGON DEMO-1 DEB 2.6 01:39:20 10° NW 01:42:18 73° NE 01:44:39 15° ESE
Cosmos 1356 4.5 01:39:05 10° NNW 01:42:24 48° W 01:45:42 10° S
Cosmos 1943 Rocket 2.5 01:38:45 10° N 01:44:01 43° ENE 01:49:18 10° SE
CZ-3B R/B 1.6 01:40:43 10° SSW 01:44:56 45° SE 01:45:49 28° E
IRS-1C Rocket 4.5 01:40:32 10° SE 01:45:24 40° ENE 01:50:19 10° N
CENTAUR R/B 3.9 01:44:04 10° SE 01:47:00 14° ESE 01:47:09 14° ESE
Cosmos 2218 Rocket 3.9 01:41:31 10° N 01:47:39 69° E 01:53:46 10° SSE
USA 81 4.0 01:43:29 10° N 01:48:47 77° E 01:54:03 10° S
FengYun 1-2 T 4.2 01:43:57 10° SSE 01:49:30 87° ENE 01:55:03 10° NNW
H-2A R/B 3.3 01:51:28 20° NE 01:51:28 20° NE 01:54:32 10° NNE
Cosmos 44 3.4 01:46:23 10° NNW 01:51:45 77° ENE 01:57:09 10° SE
Cosmos 2366 rocket 3.9 01:46:15 10° N 01:52:25 73° E 01:58:32 10° SSE
YAOGAN 1 4.2 01:59:59 18° NNE 01:59:59 18° NNE 02:01:27 10° NNE
Cosmos 489 Rocket 4.4 01:53:31 10° SSW 01:59:42 81° ESE 02:05:57 10° NNE
BREEZE-M R/B 2.1 02:03:03 10° WNW 02:06:03 79° SW 02:06:15 67° SSE
Cosmos 2297 4.0 02:00:45 10° NNW 02:06:25 71° WSW 02:12:05 10° SSE
Cosmos 1470 Rocket 3.4 02:02:34 10° N 02:06:54 75° E 02:11:12 10° SSE
SL-16 R/B 3.5 02:03:01 10° SW 02:08:16 39° WNW 02:13:32 10° N
Cosmos 2228 Rocket 3.6 02:04:55 10° SSE 02:09:08 38° E 02:09:53 35° ENE
Cosmos 1515 Rocket 3.4 02:05:56 10° S 02:10:18 87° E 02:14:44 10° N
NOSS 3-2 (A) 3.7 02:06:47 10° S 02:11:53 41° ESE 02:13:46 32° ENE
Cosmos 1812 3.6 02:08:31 10° SSE 02:11:05 31° SE 02:11:05 31° SE
Cosmos 1151 Rocket 4.4 02:09:52 10° SSW 02:13:53 39° W 02:17:55 10° N
Cosmos 1680 Rocket 4.3 02:11:33 10° SSE 02:15:47 31° ESE 02:15:47 31° ESE
COSMO-SKYMED 1 2.7 02:12:13 10° N 02:16:33 73° WNW 02:20:52 10° SSW
Cosmos 1782 3.3 02:12:54 10° SSW 02:16:47 59° W 02:20:43 10° N
Cosmos 1602 4.0 02:17:04 10° NNW 02:20:57 68° W 02:24:48 10° S
CZ-2D R/B 3.1 02:18:09 10° SSE 02:21:58 84° ENE 02:25:48 10° N
MOS 1 Rocket 3.6 02:19:54 18° NNE 02:23:57 61° E 02:29:13 10° S
Cosmos 1538 Rocket 4.3 02:19:09 10° SSW 02:24:29 68° WNW 02:29:12 14° NNE
USA 215 3.4 02:21:49 23° NE 02:26:08 68° NW 02:32:36 10° WSW
X-37B 1.5 02:23:26 10° W 02:26:11 42° NW 02:26:11 42° NW
Meteor 2-6 Rocket 4.0 02:23:24 10° S 02:29:00 72° E 02:32:54 20° NNE
USA 238 DEB 3.7 02:23:00 10° S 02:29:15 52° ESE 02:31:13 40° ENE
USA 238 3.7 02:23:05 10° S 02:29:22 52° ESE 02:31:16 40° ENE
Cosmos 2263 4.4 02:25:07 10° N 02:30:30 45° ENE 02:30:34 45° ENE
Okean-O 2.4 02:31:53 10° SSE 02:36:17 81° ENE 02:40:43 10° N
Cosmos 1933 Rocket 3.7 02:32:45 10° N 02:37:13 74° W 02:41:38 10° S
Nadezhda 3 Rocket 3.9 02:31:27 10° S 02:37:48 81° E 02:44:12 10° N
Cosmos 1689 Rocket 3.6 02:38:54 35° W 02:38:54 35° W 02:41:18 10° SW
Lacrosse 5 rocket 3.7 02:38:52 10° NW 02:40:03 11° NNW 02:40:39 11° NNW
Cosmos 1656 Rocket 4.5 02:38:10 10° N 02:41:47 34° NNE 02:41:47 34° NNE
Cosmos 1821 Rocket 3.9 02:46:59 10° N 02:53:17 88° W 02:59:37 10° S
USA 267 3.5 02:56:34 48° NNE 02:56:34 48° NNE 03:02:44 10° NW
CZ-2C R/B 3.4 02:53:57 10° S 02:59:01 62° W 03:03:52 10° NNW
DMSP B5D1-3 4.5 02:58:38 71° NNW 02:59:09 81° WNW 03:04:16 10° SSW
Cosmos 1603 4.3 02:57:54 10° SW 03:03:23 52° WNW 03:05:29 34° N
USA 281 3.2 02:57:27 10° SSE 03:04:01 80° WSW 03:10:37 10° NNW
Cosmos 1943 3.8 03:04:07 10° SW 03:09:37 53° WNW 03:11:10 41° NNW
CZ-4 R/B 4.1 03:09:42 10° SSW 03:16:24 13° NW 03:16:53 10° NNW
Cosmos 2369 Rocket 2.9 03:10:52 10° NNW 03:16:22 52° WSW 03:19:05 28° S
Cosmos 1943 Rocket 4.3 03:23:05 10° NW 03:27:27 24° WSW 03:31:50 10° SSW
H-2A R/B 3.5 03:24:45 10° S 03:32:06 30° NW 03:34:56 10° NNW
NOSS 3-2 (C) 4.3 03:29:36 10° SW 03:32:46 37° SW 03:32:46 37° SW
CENTAUR R/B 3.2 03:30:44 10° SW 03:34:23 43° SW 03:34:23 43° SW
CENTAUR R/B 4.0 11:10:33 44° NE 11:10:33 44° NE 11:18:39 10° ESE
Atlas Centaur 2 4.5 11:17:04 21° SE 11:17:04 21° SE 11:19:28 10° ESE
Milstar 3 Cent rocket 4.1 11:26:49 32° SE 11:26:49 32° SE 11:33:56 10° ESE
ATLAS 2AS CENTAUR R/B 3.7 11:25:45 47° SE 11:26:18 47° ESE 11:33:48 10° NE
NOSS 3-2 (A) 4.4 11:38:28 63° SE 11:38:28 63° SE 11:45:31 10° SE
Lacrosse 4 Rocket 4.5 11:39:59 14° E 11:39:59 14° E 11:41:04 10° E
